Hourly Weather Sopot

Today, 2 July, Thursday

Time Temperature Precipitation Wind Pressure Humidity
00:00 +17°C° 0 mm 3 mps 754 mmHg 94%
01:00 +17°C° 0 mm 3 mps 753 mmHg 93%
02:00 +17°C° 0.1 mm 3 mps 753 mmHg 94%
03:00 +17°C° 0.1 mm 3 mps 753 mmHg 95%
04:00 +17°C° 0.1 mm 4 mps 752 mmHg 96%
05:00 +18°C° 0.1 mm 4 mps 753 mmHg 94%
06:00 +19°C° 0.1 mm 5 mps 753 mmHg 91%
07:00 +19°C° 0.1 mm 5 mps 753 mmHg 89%
08:00 +20°C° 0.1 mm 6 mps 753 mmHg 83%
09:00 +20°C° 0.1 mm 6 mps 754 mmHg 77%
10:00 +21°C° 0.1 mm 6 mps 754 mmHg 72%
11:00 +22°C° 0 mm 6 mps 754 mmHg 67%
12:00 +23°C° 0 mm 6 mps 755 mmHg 62%
13:00 +23°C° 0 mm 6 mps 755 mmHg 57%
14:00 +23°C° 0 mm 5 mps 755 mmHg 58%
15:00 +23°C° 0 mm 5 mps 755 mmHg 60%
16:00 +23°C° 0 mm 4 mps 755 mmHg 61%
17:00 +22°C° 0.1 mm 4 mps 756 mmHg 67%
18:00 +21°C° 0.1 mm 3 mps 756 mmHg 73%
19:00 +20°C° 0.1 mm 2 mps 756 mmHg 79%
20:00 +18°C° 0 mm 2 mps 756 mmHg 83%
21:00 +17°C° 0 mm 2 mps 756 mmHg 86%
22:00 +16°C° 0 mm 1 mps 756 mmHg 89%
23:00 +16°C° 0 mm 1 mps 756 mmHg 89%

Tomorrow, 3 July, Friday

Time Temperature Precipitation Wind Pressure Humidity
00:00 +15°C° 0 mm 1 mps 756 mmHg 89%
01:00 +15°C° 0 mm 1 mps 757 mmHg 90%
02:00 +14°C° 0 mm 0 mps 756 mmHg 90%
03:00 +14°C° 0 mm 0 mps 756 mmHg 90%
04:00 +15°C° 0 mm 0 mps 756 mmHg 90%
05:00 +16°C° 0.4 mm 1 mps 756 mmHg 91%
06:00 +16°C° 0.4 mm 2 mps 757 mmHg 93%
07:00 +16°C° 0.4 mm 2 mps 757 mmHg 94%
08:00 +17°C° 0.9 mm 2 mps 757 mmHg 91%
09:00 +18°C° 0.9 mm 2 mps 757 mmHg 88%
10:00 +19°C° 0.9 mm 2 mps 758 mmHg 84%
11:00 +20°C° 0.3 mm 2 mps 758 mmHg 82%
12:00 +20°C° 0.3 mm 2 mps 758 mmHg 79%
13:00 +21°C° 0.3 mm 2 mps 758 mmHg 76%
14:00 +20°C° 0.4 mm 3 mps 758 mmHg 78%
15:00 +20°C° 0.4 mm 3 mps 758 mmHg 81%
16:00 +19°C° 0.4 mm 4 mps 758 mmHg 83%
17:00 +19°C° 0 mm 3 mps 759 mmHg 82%
18:00 +18°C° 0 mm 3 mps 759 mmHg 82%
19:00 +17°C° 0 mm 2 mps 759 mmHg 82%
20:00 +16°C° 0 mm 2 mps 760 mmHg 84%
21:00 +15°C° 0 mm 2 mps 760 mmHg 87%
22:00 +14°C° 0 mm 2 mps 760 mmHg 89%
23:00 +13°C° 0 mm 3 mps 760 mmHg 88%

Day after tomorrow, 4 July, Saturday

Time Temperature Precipitation Wind Pressure Humidity
00:00 +13°C° 0 mm 3 mps 760 mmHg 86%
01:00 +13°C° 0 mm 4 mps 760 mmHg 84%
02:00 +13°C° 0 mm 4 mps 760 mmHg 85%
03:00 +13°C° 0 mm 5 mps 760 mmHg 85%
04:00 +14°C° 0 mm 5 mps 760 mmHg 85%
05:00 +15°C° 0 mm 5 mps 760 mmHg 83%
06:00 +17°C° 0 mm 5 mps 760 mmHg 80%
07:00 +19°C° 0 mm 5 mps 760 mmHg 78%
08:00 +20°C° 0 mm 5 mps 760 mmHg 74%
09:00 +21°C° 0 mm 5 mps 760 mmHg 69%
10:00 +22°C° 0 mm 5 mps 760 mmHg 65%
11:00 +23°C° 0 mm 5 mps 760 mmHg 62%
12:00 +25°C° 0 mm 5 mps 760 mmHg 60%
13:00 +25°C° 0 mm 5 mps 760 mmHg 57%
14:00 +23°C° 0 mm 5 mps 760 mmHg 62%
15:00 +22°C° 0 mm 4 mps 760 mmHg 67%
16:00 +21°C° 0 mm 4 mps 759 mmHg 73%
17:00 +21°C° 0 mm 3 mps 759 mmHg 75%
18:00 +20°C° 0 mm 2 mps 759 mmHg 78%
19:00 +19°C° 0 mm 2 mps 759 mmHg 81%
20:00 +19°C° 0 mm 2 mps 759 mmHg 82%
21:00 +18°C° 0 mm 2 mps 759 mmHg 82%
22:00 +18°C° 0 mm 3 mps 759 mmHg 83%
23:00 +18°C° 0 mm 3 mps 759 mmHg 83%

5 July, Sunday

Time Temperature Precipitation Wind Pressure Humidity
00:00 +18°C° 0 mm 4 mps 759 mmHg 84%
01:00 +18°C° 0 mm 4 mps 758 mmHg 85%
02:00 +18°C° 0.1 mm 4 mps 758 mmHg 85%
03:00 +17°C° 0.1 mm 5 mps 758 mmHg 85%
04:00 +17°C° 0.1 mm 5 mps 758 mmHg 85%
05:00 +17°C° 0 mm 5 mps 757 mmHg 85%
06:00 +17°C° 0 mm 5 mps 757 mmHg 84%
07:00 +19°C° 0 mm 6 mps 757 mmHg 83%
08:00 +19°C° 0.1 mm 5 mps 757 mmHg 82%
09:00 +20°C° 0.1 mm 5 mps 757 mmHg 82%
10:00 +20°C° 0.1 mm 5 mps 757 mmHg 81%
11:00 +21°C° 0.1 mm 6 mps 757 mmHg 80%
12:00 +21°C° 0.1 mm 6 mps 756 mmHg 78%
13:00 +22°C° 0.1 mm 6 mps 756 mmHg 76%
14:00 +22°C° 0.1 mm 7 mps 756 mmHg 76%
15:00 +23°C° 0.1 mm 7 mps 755 mmHg 75%
16:00 +23°C° 0.1 mm 7 mps 755 mmHg 74%
17:00 +22°C° 0.2 mm 6 mps 755 mmHg 78%
18:00 +22°C° 0.2 mm 6 mps 755 mmHg 82%
19:00 +21°C° 0.2 mm 6 mps 754 mmHg 85%
20:00 +21°C° 0 mm 6 mps 754 mmHg 85%
21:00 +20°C° 0 mm 7 mps 754 mmHg 86%
22:00 +20°C° 0 mm 7 mps 754 mmHg 86%
23:00 +18°C° 0.1 mm 7 mps 754 mmHg 86%

6 July, Monday

Time Temperature Precipitation Wind Pressure Humidity
00:00 +18°C° 0.1 mm 7 mps 754 mmHg 87%
01:00 +18°C° 0.1 mm 7 mps 753 mmHg 87%
02:00 +18°C° 0 mm 7 mps 753 mmHg 89%
03:00 +17°C° 0 mm 7 mps 754 mmHg 90%
04:00 +17°C° 0 mm 6 mps 754 mmHg 91%
05:00 +17°C° 0.1 mm 6 mps 754 mmHg 89%
06:00 +19°C° 0.1 mm 6 mps 754 mmHg 87%
07:00 +19°C° 0.1 mm 6 mps 754 mmHg 85%
08:00 +20°C° 0.2 mm 6 mps 754 mmHg 80%
09:00 +21°C° 0.2 mm 6 mps 754 mmHg 75%
10:00 +22°C° 0.2 mm 6 mps 754 mmHg 71%
11:00 +22°C° 0.3 mm 6 mps 754 mmHg 68%
12:00 +23°C° 0.3 mm 6 mps 754 mmHg 66%
13:00 +23°C° 0.3 mm 6 mps 754 mmHg 64%
14:00 +23°C° 0.2 mm 7 mps 754 mmHg 66%
15:00 +22°C° 0.2 mm 7 mps 754 mmHg 67%
16:00 +22°C° 0.2 mm 7 mps 754 mmHg 69%
17:00 +21°C° 0 mm 6 mps 754 mmHg 71%
18:00 +19°C° 0 mm 5 mps 754 mmHg 73%
19:00 +18°C° 0 mm 4 mps 755 mmHg 74%
20:00 +16°C° 0 mm 5 mps 755 mmHg 76%
21:00 +15°C° 0 mm 5 mps 755 mmHg 77%
22:00 +14°C° 0 mm 6 mps 756 mmHg 78%
23:00 +14°C° 0 mm 6 mps 756 mmHg 79%

7 July, Tuesday

Time Temperature Precipitation Wind Pressure Humidity
00:00 +13°C° 0 mm 6 mps 756 mmHg 81%
01:00 +13°C° 0 mm 6 mps 757 mmHg 83%
02:00 +11°C° 0 mm 6 mps 757 mmHg 83%
03:00 +11°C° 0 mm 6 mps 757 mmHg 84%
04:00 +11°C° 0 mm 6 mps 757 mmHg 84%
05:00 +13°C° 0 mm 6 mps 757 mmHg 81%
06:00 +14°C° 0 mm 7 mps 758 mmHg 79%
07:00 +15°C° 0 mm 7 mps 758 mmHg 76%
08:00 +16°C° 0.1 mm 7 mps 758 mmHg 73%
09:00 +17°C° 0.1 mm 7 mps 759 mmHg 70%
10:00 +19°C° 0.1 mm 6 mps 759 mmHg 67%
11:00 +19°C° 0.3 mm 6 mps 759 mmHg 66%
12:00 +19°C° 0.3 mm 6 mps 759 mmHg 66%
13:00 +19°C° 0.3 mm 6 mps 759 mmHg 65%
14:00 +19°C° 0.1 mm 6 mps 760 mmHg 62%
15:00 +18°C° 0.1 mm 7 mps 760 mmHg 60%
16:00 +18°C° 0.1 mm 7 mps 760 mmHg 58%
17:00 +17°C° 0 mm 6 mps 760 mmHg 62%
18:00 +16°C° 0 mm 6 mps 760 mmHg 66%
19:00 +15°C° 0 mm 5 mps 760 mmHg 70%
20:00 +14°C° 0 mm 5 mps 761 mmHg 72%
21:00 +13°C° 0 mm 5 mps 761 mmHg 75%
22:00 +12°C° 0 mm 5 mps 761 mmHg 78%
23:00 +10°C° 0 mm 6 mps 761 mmHg 80%
Show more